[[{"header":{"parameterUnit":"m.s-1","parameterCategory":1,"la1":30.2992,"la2":30.254,"lo1":-89.0895,"lo2":-89.0443,"dy":0.0025,"dx":0.0025,"nx":19,"ny":19,"refTime":"2026-05-05T21:00:00:Z","depth":0,"parameterNumber":2,"parameterNumberName":"U-component_of_WINDS"},"data":[0,0,0,-1.8931,-1.8932,-1.8954,-1.8954,-1.8986,-1.8986,0,0,0,0,0,0,0,0,0,0,0,-1.8927,-1.8927,-1.8931,-1.8932,-1.8954,-1.8954,-1.8986,-1.8986,0,0,0,0,0,0,0,0,0,0,0,-1.8927,-1.8927,-1.8928,-1.8932,-1.8954,-1.8954,-1.8986,-1.8968,0,0,0,0,0,0,0,0,0,0,-1.8946,-1.8944,-1.8927,-1.8928,-1.8932,-1.8954,-1.8954,-1.8967,-1.8969,-1.8978,0,-1.8986,0,-1.8987,-1.8989,-1.8989,0,0,0,-1.893,-1.8942,-1.8946,-1.8928,-1.8932,-1.8954,-1.8944,-1.8968,-1.897,-1.898,-1.8986,-1.8987,-1.8987,-1.8989,-1.8989,-1.9043,-1.9044,0,0,-1.8929,-1.8932,-1.8945,-1.8948,-1.8945,-1.8943,-1.8944,-1.8969,-1.8976,-1.8986,-1.8988,-1.8988,-1.8989,-1.8989,-1.9043,-1.9044,0,0,0,-1.8927,-1.8931,-1.8935,-1.8947,-1.895,-1.8944,-1.8945,-1.8975,-1.8976,-1.8988,-1.8988,-1.8989,-1.899,-1.9043,-1.9043,-1.9061,0,0,0,-1.8926,-1.893,-1.8934,-1.8936,-1.895,-1.8963,-1.895,-1.8974,-1.8977,-1.8988,-1.8989,-1.899,-1.9042,-1.9043,-1.906,-1.9069,0,0,0,-1.8925,-1.893,-1.8934,-1.8936,-1.8946,-1.8962,-1.8965,-1.8975,-1.8977,-1.8989,-1.899,-1.9042,-1.9043,-1.9059,-1.9067,-1.9083,0,0,0,-1.8925,-1.895,-1.8934,-1.8963,-1.8946,-1.8974,-1.8964,-1.8985,-1.8998,-1.899,-1.9042,-1.9043,-1.9058,-1.9066,-1.9081,-1.9095,-1.9102,0,0,-1.8958,-1.8954,-1.8971,-1.8957,-1.8989,-1.897,-1.9005,-1.9014,-1.9012,-1.9033,-1.9035,-1.906,-1.9067,-1.9082,-1.914,-1.9145,0,0,0,-1.8983,-1.8994,-1.9002,-1.9014,-1.9022,-1.9029,-1.9032,-1.9036,-1.9053,-1.9024,-1.9071,-1.9075,-1.9084,-1.909,-1.9095,-1.9102,-1.9047,-1.9047,-1.9047,-1.9033,-1.903,-1.9057,-1.9057,-1.9069,-1.9073,-1.9082,-1.9087,-1.9081,-1.9093,-1.9098,-1.9133,-1.9141,-1.9144,-1.9151,-1.9107,-1.9107,-1.9107,-1.9107,-1.9081,-1.9096,-1.9088,-1.911,-1.9107,-1.9127,-1.9132,-1.9127,-1.9144,-1.9129,-1.9137,-1.9119,-1.915,-1.9156,-1.9108,-1.9108,-1.9108,-1.9108,-1.9108,-1.9112,-1.9119,-1.9123,-1.914,-1.9154,-1.9153,-1.917,-1.9167,-1.9165,-1.9173,-1.9177,-1.9177,-1.9175,-1.9176,-1.9176,-1.9176,-1.9176,-1.9176,-1.9176,-1.9142,-1.9146,-1.916,-1.9171,-1.9178,-1.9187,-1.9192,-1.9199,-1.9206,-1.9203,-1.9203,-1.9195,-1.9154,-1.9143,-1.9178,-1.9178,-1.9177,-1.9177,-1.9177,-1.9188,-1.9177,-1.9199,-1.9206,-1.9218,-1.9231,-1.9228,-1.9243,-1.9249,-1.9257,-1.9248,-1.9219,-1.9215,-1.9211,-1.9202,-1.925,-1.925,-1.925,-1.925,-1.9212,-1.921,-1.9231,-1.9243,-1.9255,-1.9254,-1.9279,-1.9283,-1.9286,-1.9289,-1.9282,-1.927,-1.9267,-1.9264,-1.926,-1.925,-1.931,-1.931,-1.931,-1.9239,-1.9238,-1.9259,-1.9262,-1.9271,-1.9279,-1.9302,-1.9316,-1.9317,-1.9312,-1.9291,-1.9289,-1.9269,-1.9263,-1.9256,-1.9249,-1.9232,0,0]},{"header":{"parameterUnit":"m.s-1","parameterCategory":1,"la1":30.2992,"la2":30.254,"lo1":-89.0895,"lo2":-89.0443,"dy":0.0025,"dx":0.0025,"nx":19,"ny":19,"refTime":"2026-05-05T21:00:00:Z","depth":0,"parameterNumber":3,"parameterNumberName":"V-component_of_WINDS"},"data":[0,0,0,4.1849,4.1851,4.1952,4.1952,4.2067,4.2068,0,0,0,0,0,0,0,0,0,0,0,4.1811,4.1812,4.1849,4.1851,4.1952,4.1952,4.2067,4.2068,0,0,0,0,0,0,0,0,0,0,0,4.1811,4.1811,4.1812,4.1852,4.1952,4.1952,4.2066,4.1995,0,0,0,0,0,0,0,0,0,0,4.19,4.1857,4.1811,4.1812,4.1852,4.1952,4.1952,4.1992,4.2,4.2015,0,4.2027,0,4.205,4.2075,4.2075,0,0,0,4.1857,4.185,4.1885,4.1812,4.1853,4.1951,4.1908,4.1997,4.2005,4.2025,4.2029,4.2034,4.2051,4.2075,4.2076,4.2151,4.2151,0,0,4.1851,4.1824,4.1879,4.189,4.1875,4.1905,4.1911,4.2002,4.2004,4.203,4.2037,4.2053,4.2076,4.2077,4.2151,4.2151,0,0,0,4.1832,4.182,4.1853,4.1885,4.1905,4.1908,4.1915,4.2,4.2013,4.2038,4.2055,4.2076,4.2078,4.2151,4.2151,4.2131,0,0,0,4.1829,4.1808,4.185,4.1834,4.1903,4.1953,4.191,4.2007,4.2018,4.2054,4.2076,4.2079,4.2151,4.2151,4.2132,4.2126,0,0,0,4.1807,4.1806,4.1818,4.1833,4.1875,4.1953,4.1971,4.201,4.2028,4.2075,4.2079,4.2151,4.2151,4.2132,4.2126,4.214,0,0,0,4.1776,4.1795,4.1817,4.1846,4.1874,4.194,4.1971,4.202,4.2058,4.2077,4.2151,4.2151,4.2132,4.2127,4.214,4.2148,4.2148,0,0,4.1785,4.1795,4.1814,4.1837,4.1892,4.1926,4.1979,4.2038,4.2066,4.2121,4.2123,4.2132,4.2126,4.214,4.2157,4.2156,0,0,0,4.1808,4.1822,4.1842,4.1879,4.1927,4.1968,4.2023,4.2046,4.2095,4.2089,4.214,4.2138,4.2147,4.2152,4.2152,4.2163,4.2152,4.2152,4.2152,4.1779,4.1819,4.1854,4.1906,4.1942,4.2001,4.2034,4.2075,4.2099,4.2112,4.2128,4.2134,4.2138,4.2138,4.2149,4.2134,4.2134,4.2134,4.2134,4.1798,4.1824,4.1863,4.1912,4.1953,4.1994,4.2053,4.2071,4.2116,4.2123,4.2133,4.2138,4.2137,4.2149,4.2133,4.2133,4.2133,4.2133,4.2133,4.1784,4.1804,4.1834,4.1895,4.1938,4.199,4.2033,4.2068,4.2101,4.2111,4.2134,4.2135,4.2141,4.2119,4.2119,4.212,4.212,4.212,4.212,4.1758,4.1793,4.1826,4.1883,4.1914,4.1959,4.2023,4.2054,4.2098,4.212,4.212,4.2146,4.213,4.2126,4.212,4.212,4.212,4.212,4.212,4.1763,4.1769,4.1819,4.1851,4.1924,4.1966,4.2012,4.2074,4.2105,4.2126,4.2151,4.2133,4.2145,4.2145,4.2142,4.2141,4.2141,4.2141,4.2141,4.1752,4.1764,4.1826,4.1875,4.1927,4.1976,4.2034,4.2085,4.2138,4.2161,4.2166,4.2165,4.2163,4.2177,4.2176,4.2174,4.2181,4.2181,4.2181,4.1759,4.1778,4.1819,4.1875,4.1936,4.1987,4.2044,4.21,4.2161,4.2184,4.2179,4.2178,4.2176,4.2173,4.2194,4.2193,4.219,0,0]}]]